Regional Weather Roundup
Issued by NWS

Home | Current Version | Previous Version | Text Only | Print | Product List | Glossary On
Versions: 1 2 3 4 5 6 7 8 9 10 11 12 13 14 15 16 17 18 19 20 21 22 23 24 25 26 27 28 29 30 31 32 33 34 35 36 37 38 39 40 41 42 43 44 45 46 47 48 49 50
000
ASUS43 KLSX 231957
RWRMO

WEATHER SUMMARY FOR MISSOURI
NATIONAL WEATHER SERVICE SPRINGFIELD MO
200 PM CST FRI FEB 23 2018

NOTE: "FAIR" INDICATES FEW OR NO CLOUDS BELOW 12,000 FEET WITH NO
       SIGNIFICANT WEATHER AND/OR OBSTRUCTIONS TO VISIBILITY.
       CURRENT SKY AND/OR WEATHER CONDITIONS ARE NOT AVAILABLE FOR
       CHILLICOTHE AND FARMINGTON.

MOZ001>031-035>038-043-044-053-054-232100-
...NORTHERN AND WESTERN MISSOURI...

CITY           SKY/WX    TMP DP  RH WIND       PRES   REMARKS
KANSAS CTY INT CLOUDY    33  29  85 N6        30.28F WCI  28
LEE`S SUMMIT   CLOUDY    35  31  85 N6        30.28F
ST JOSEPH      CLOUDY    36  30  79 N6        30.30F
CHILLICOTHE      N/A     39  30  70 NW5       30.30S

$$
MOZ066>068-077>081-088>096-101>105-232100-
...SOUTHWEST MISSOURI...

CITY           SKY/WX    TMP DP  RH WIND       PRES   REMARKS
SPRINGFIELD    CLOUDY    46  42  86 NE5       30.22S
JOPLIN         CLOUDY    42  41  96 VRB3      30.25F
BRANSON        CLOUDY    45  45 100 S5        30.26R

$$
MOZ032>034-039>042-045>050-055>058-069>072-232100-
...CENTRAL MISSOURI...

CITY           SKY/WX    TMP DP  RH WIND       PRES   REMARKS
COLUMBIA       NOT AVBL
JEFFERSON CITY CLOUDY    40  37  89 NW7       30.28S
ROLLA          CLOUDY    44  42  93 SW5       30.25S
SEDALIA        CLOUDY    39  36  89 N6        30.28F
WARRENSBURG    CLOUDY    36  32  87 NW6       30.28S

$$
MOZ051-052-059>065-232100-
...EAST CENTRAL MISSOURI...

CITY           SKY/WX    TMP DP  RH WIND       PRES   REMARKS
ST LOUIS INTL  CLOUDY    48  43  82 N7        30.26R

$$
MOZ072>076-082>087-097>100-106>115-232100-
...SOUTH CENTRAL AND SOUTHEAST MISSOURI...

CITY           SKY/WX    TMP DP  RH WIND       PRES   REMARKS
CAPE GIRARDEAU FAIR      54  50  86 CALM      30.26S
POPLAR BLUFF   CLOUDY    52  48  86 VRB3      30.24F
WEST PLAINS    CLOUDY    48  44  86 SE3       30.24F

$$



USA.gov is the U.S. government's official web portal to all federal, state and local government web resources and services.